This demonstration page uses our WeatherBlox Daily Observations layout. Learn more.

Left ArrowRight Arrow

34.02893, -84.19858

Hourly Observations for August 11, 2015

Temp ( °F °C ) Dew Point ( °F °C ) Humidity (%) Winds ( mph kmh ) Pressure ( in mb ) Visibility ( mi km ) Precip ( " mm )
12:16 am 00:16 Mostly Cloudy 73 23 73 23 100 100 Calm 29.97 1015 8 13 0.00 0.00
12:53 am 00:53 Cloudy 73 22.8 73 22.8 100 100 Calm 29.93 1013 8 13 0.00 0.00
1:04 am 01:04 Cloudy 73 23 72 22 94 94 Calm 29.97 1015 7 11 0.00 0.00
1:53 am 01:53 Cloudy 73 22.8 73 22.8 100 100 Calm 29.92 1013 7 11 0.00 0.00
2:17 am 02:17 Cloudy 73 22.8 73 22.8 100 100 S 3 6 29.94 1014 8 13 0.00 0.00
2:53 am 02:53 Mostly Cloudy 73 22.8 73 22.8 100 100 S 3 6 29.91 1013 9 14 0.00 0.00
3:53 am 03:53 Partly Cloudy 74 23.3 73 22.8 97 97 Calm 29.89 1012 9 14 0.00 0.00
4:53 am 04:53 Mostly Cloudy 73 22.8 73 22.8 100 100 SSW 5 7 29.89 1012 10 16 0.00 0.00
5:53 am 05:53 Clear 72 22.2 71 21.7 97 97 SW 6 9 29.91 1013 10 16 0.00 0.00
6:53 am 06:53 Partly Cloudy 72 22.2 71 21.7 97 97 WSW 3 6 29.92 1013 10 16 0.00 0.00
7:53 am 07:53 Sunny 73 22.8 72 22.2 96 96 WSW 7 11 29.93 1014 8 13 0.00 0.00
8:53 am 08:53 Partly Cloudy 75 23.9 72 22.2 90 90 W 8 13 29.95 1014 10 16 0.00 0.00
9:53 am 09:53 Mostly Sunny 79 26.1 72 22.2 79 79 VRB 3 6 29.95 1014 10 16 0.00 0.00
10:53 am 10:53 Sunny 82 27.8 72 22.2 72 72 WNW 6 9 29.96 1014 10 16 0.00 0.00
11:15 am 11:15 Mostly Cloudy 82 27.8 73 22.8 74 74 W 9 15 29.94 1014 10 16 0.00 0.00
11:45 am 11:45 Partly Cloudy 84 28.9 73 22.8 70 70 SW 7 11 29.94 1014 10 16 0.00 0.00
11:53 am 11:53 Partly Cloudy 83 28.3 73 22.8 72 72 VRB 7 11 29.96 1014 10 16 0.00 0.00
12:53 pm 12:53 Mostly Cloudy 86 30 73 22.8 65 65 W 7 11 29.94 1014 10 16 0.00 0.00
1:20 pm 13:20 Mostly Cloudy with Heavy Rain 81 27 73 23 79 79 WNW 10 17 29.94 1014 1 2 0.00 0.00
1:22 pm 13:22 Mostly Cloudy with Heavy Rain 79 26 73 23 84 84 W 13 20 29.94 1014 1 1 0.00 0.00
1:35 pm 13:35 Mostly Cloudy with Light Rain 76 24.4 73 22.8 91 91 undefined N/A 29.97 1015 10 16 0.45 11.43
1:53 pm 13:53 Mostly Cloudy 81 27.2 76 24.4 85 85 VRB 3 6 29.93 1014 10 16 0.45 11.43
2:53 pm 14:53 Sunny 88 31.1 74 23.3 63 63 W 10 17 29.89 1012 10 16 0.00 0.00
3:53 pm 15:53 Mostly Sunny 90 32.2 71 21.7 54 54 W 9 15 29.87 1012 10 16 0.00 0.00
4:53 pm 16:53 Mostly Cloudy 90 32.2 70 21.1 52 52 NW 9 15 29.86 1011 10 16 0.00 0.00
5:53 pm 17:53 Mostly Cloudy 86 30 70 21.1 59 59 NNW 10 17 29.87 1012 10 16 0.00 0.00
6:53 pm 18:53 Mostly Sunny 86 30 70 21.1 59 59 NW 14 22 29.87 1012 10 16 0.00 0.00
7:53 pm 19:53 Sunny 83 28.3 72 22.2 70 70 NW 8 13 29.89 1012 10 16 0.00 0.00
8:53 pm 20:53 Mostly Clear 81 27.2 71 21.7 72 72 NW 6 9 29.90 1012 10 16 0.00 0.00
9:53 pm 21:53 Mostly Clear 79 26.1 71 21.7 77 77 NW 6 9 29.91 1013 10 16 0.00 0.00
10:53 pm 22:53 Clear 77 25 71 21.7 82 82 N 5 7 29.93 1013 10 16 0.00 0.00
11:53 pm 23:53 Clear 77 25 71 21.7 82 82 NW 5 7 29.93 1014 10 16 0.00 0.00

Powered by AerisWeather